Marrakech, Morocco

5:08 PM WEST on August 19, 2017 (GMT +0100)
Marrakech

Weather History for GMMX - February, 2013

Change the Weather History Date:

Tuesday, February 5, 2013

  Actual Average Record
Temperature  
Mean Temperature 55 °F -  
Max Temperature 73 °F 68 °F 78 °F (2000)
Min Temperature 37 °F 46 °F 30 °F (2012)
Degree Days  
Heating Degree Days 10    
Growing Degree Days 5 (Base 50)    
Moisture  
Dew Point 39 °F    
Average Humidity 50    
Maximum Humidity 76    
Minimum Humidity 16    
Precipitation  
Precipitation 0.00 in 0.05 in - ()
Sea Level Pressure  
Sea Level Pressure 30.32 in    
Wind  
Wind Speed 4 mph ()    
Max Wind Speed 12 mph    
Max Gust Speed -    
Visibility 5.7 miles    
Events      
Averages and records for this station are not official NWS values.
T = Trace of Precipitation, MM = Missing Value Source: Averaged Metar Reports

Daily Weather History Graph

Daily Weather History Graph

Search for Another Location

Airport or City:

Trip Planner

Search our weather history database for the weather conditions in past years. The results will help you decide how hot, cold, wet, or windy it might be!

Date:

Astronomy

Feb. 05, 2013 Rise Set
Actual Time 7:22 AM WET 6:10 PM WET
Civil Twilight 6:56 AM WET 6:35 PM WET
Nautical Twilight 6:28 AM WET 7:04 PM WET
Astronomical Twilight 5:59 AM WET 7:33 PM WET
Moon 2:43 AM WET (2/5) 1:21 PM WET (2/5)
Length of Visible Light 11h 38m
Length of Day
10h 48m
Waning Crescent, 29% of the Moon is Illuminated
Feb 5
Waning Crescent
Feb 10
New
Feb 17
First Quarter
Feb 25
Full
Mar 4
Last Quarter

Hourly Weather History & Observations

Time (WET) Temp. Dew Point Humidity Pressure Visibility Wind Dir Wind Speed Gust Speed Precip Events Conditions
12:00 AM 57 °F 38 °F 38% 30.30 in 6 mi SSW 5.8 mph - -  
12:00 AM 57.2 °F 39.2 °F 51% 30.30 in - SSW 5.8 mph - N/A   Clear
1:00 AM 53.6 °F 39.2 °F 58% 30.30 in - South 3.5 mph - N/A   Clear
1:30 AM 51.8 °F 37.4 °F 58% 30.30 in - South 3.5 mph - N/A   Clear
2:00 AM 51.8 °F 37.4 °F 58% 30.30 in - SE 3.5 mph - N/A   Clear
2:30 AM 51.8 °F 37.4 °F 58% 30.30 in - SSE 3.5 mph - N/A   Clear
3:00 AM 51 °F 38 °F 50% 30.32 in 6 mi SSE 3.5 mph - -  
3:00 AM 51.8 °F 37.4 °F 58% 30.30 in - SE 3.5 mph - N/A   Clear
3:30 AM 50.0 °F 37.4 °F 62% 30.30 in - Calm Calm - N/A   Clear
4:00 AM 50.0 °F 37.4 °F 62% 30.30 in - Calm Calm - N/A   Clear
4:30 AM 50.0 °F 37.4 °F 62% 30.30 in - Calm Calm - N/A   Clear
5:00 AM 46.4 °F 39.2 °F 76% 30.30 in - Calm Calm - N/A   Clear
5:30 AM 48.2 °F 37.4 °F 66% 30.30 in - Calm Calm - N/A   Clear
6:00 AM 47 °F 38 °F 63% 30.34 in 6 mi Calm Calm - -  
6:00 AM 48.2 °F 39.2 °F 71% 30.30 in - Calm Calm - N/A   Clear
6:30 AM 46.4 °F 37.4 °F 71% 30.33 in - Calm Calm - N/A   Clear
7:00 AM 46.4 °F 37.4 °F 71% 30.33 in - Calm Calm - N/A   Clear
7:30 AM 48.2 °F 37.4 °F 66% 30.33 in 4.3 mi SSW 5.8 mph - N/A   Unknown
8:00 AM 48.2 °F 37.4 °F 66% 30.36 in - SW 5.8 mph - N/A   Clear
8:30 AM 51.8 °F 39.2 °F 62% 30.36 in - SW 3.5 mph - N/A   Clear
9:00 AM 56 °F 39 °F 42% 30.36 in 4 mi SW 6.9 mph - -  
9:00 AM 55.4 °F 39.2 °F 54% 30.36 in - SW 6.9 mph - N/A   Clear
9:30 AM 59.0 °F 39.2 °F 48% 30.36 in - SW 6.9 mph - N/A   Clear
10:00 AM 62.6 °F 39.2 °F 42% 30.36 in - WSW 3.5 mph - N/A   Clear
10:30 AM 64.4 °F 39.2 °F 40% 30.36 in - West 4.6 mph - N/A   Clear
11:00 AM 66.2 °F 41.0 °F 40% 30.36 in - WNW 4.6 mph - N/A   Clear
11:30 AM 68.0 °F 39.2 °F 35% 30.36 in - NW 4.6 mph - N/A   Clear
12:00 PM 68 °F 40 °F 24% 30.31 in 6 mi WNW 5.8 mph - -  
12:00 PM 68.0 °F 41.0 °F 37% 30.36 in - WNW 4.6 mph - N/A   Clear
1:00 PM 69.8 °F 39.2 °F 33% 30.33 in - NW 6.9 mph - N/A   Clear
1:30 PM 71.6 °F 39.2 °F 31% 30.30 in - NW 6.9 mph - N/A   Clear
2:00 PM 71.6 °F 39.2 °F 31% 30.30 in - WNW 8.1 mph - N/A   Clear
2:30 PM 71.6 °F 39.2 °F 31% 30.30 in - WNW 8.1 mph - N/A   Clear
3:00 PM 73 °F 36 °F 16% 30.24 in 6 mi WNW 8.1 mph - -  
3:00 PM 73.4 °F 37.4 °F 27% 30.30 in - WNW 8.1 mph - N/A   Clear
3:30 PM 73.4 °F 32.0 °F 22% 30.27 in - WNW 10.4 mph - N/A   Clear
4:00 PM 71.6 °F 35.6 °F 27% 30.27 in - WNW 11.5 mph - N/A   Clear
4:30 PM 69.8 °F 35.6 °F 28% 30.30 in - WNW 11.5 mph - N/A   Clear
5:00 PM 69.8 °F 35.6 °F 28% 30.30 in - WNW 11.5 mph - N/A   Clear
5:30 PM 68.0 °F 37.4 °F 33% 30.30 in - WNW 10.4 mph - N/A   Clear
6:00 PM 65 °F 38 °F 26% 30.28 in 6 mi West 8.1 mph - -  
6:00 PM 66.2 °F 37.4 °F 35% 30.30 in - West 9.2 mph - N/A   Clear
6:30 PM 60.8 °F 37.4 °F 42% 30.30 in - West 5.8 mph - N/A   Clear
7:00 PM 59.0 °F 39.2 °F 48% 30.30 in - West 8.1 mph - N/A   Clear
7:30 PM 57.2 °F 41.0 °F 55% 30.30 in - West 6.9 mph - N/A   Clear
8:00 PM 55.4 °F 41.0 °F 58% 30.33 in - West 6.9 mph - N/A   Clear
8:30 PM 55.4 °F 41.0 °F 58% 30.33 in - WSW 4.6 mph - N/A   Clear
9:00 PM 52 °F 42 °F 58% 30.35 in 6 mi WSW 4.6 mph - -  
9:00 PM 51.8 °F 41.0 °F 67% 30.33 in - WSW 5.8 mph - N/A   Clear
9:30 PM 51.8 °F 41.0 °F 67% 30.33 in - SW 4.6 mph - N/A   Clear
10:00 PM 51.8 °F 42.8 °F 71% 30.33 in - SW 4.6 mph - N/A   Clear
10:30 PM 53.6 °F 42.8 °F 67% 30.33 in 6.2 mi SSW 5.8 mph - N/A   Unknown
11:00 PM 50.0 °F 42.8 °F 76% 30.33 in 6.2 mi WSW 4.6 mph - N/A   Unknown